TimeMDT,TemperatureF,Dew PointF,Humidity,Sea Level PressureIn,VisibilityMPH,Wind Direction,Wind SpeedMPH,Gust SpeedMPH,PrecipitationIn,Events,Conditions,WindDirDegrees,DateUTC
12:53 AM,30.9,27.0,85,29.83,10.0,ESE,18.4,24.2,N/A,,Clear,110,2013-03-17 06:53:00
1:53 AM,33.1,30.0,89,29.80,10.0,SE,16.1,-,N/A,,Clear,130,2013-03-17 07:53:00
2:20 AM,33.8,30.2,87,29.81,10.0,SE,15.0,-,N/A,,Mostly Cloudy,130,2013-03-17 08:20:00
2:53 AM,33.1,30.0,89,29.79,10.0,SE,13.8,-,N/A,,Overcast,130,2013-03-17 08:53:00
3:53 AM,32.0,28.0,85,29.76,10.0,SE,11.5,-,N/A,,Mostly Cloudy,130,2013-03-17 09:53:00
4:10 AM,32.0,28.4,87,29.76,10.0,ESE,11.5,-,N/A,,Scattered Clouds,120,2013-03-17 10:10:00
4:53 AM,30.9,28.0,89,29.73,10.0,SE,10.4,-,N/A,,Clear,130,2013-03-17 10:53:00
5:53 AM,30.0,27.0,88,29.72,10.0,SE,10.4,-,N/A,,Clear,130,2013-03-17 11:53:00
6:53 AM,28.9,26.1,89,29.68,10.0,SE,12.7,-,N/A,,Clear,130,2013-03-17 12:53:00
7:53 AM,28.0,24.1,85,29.67,9.0,ESE,17.3,-,N/A,,Clear,120,2013-03-17 13:53:00
8:53 AM,33.1,26.1,75,29.66,10.0,SE,16.1,-,N/A,,Clear,130,2013-03-17 14:53:00
9:53 AM,36.0,27.0,70,29.64,10.0,ESE,6.9,-,N/A,,Partly Cloudy,120,2013-03-17 15:53:00
10:53 AM,39.9,28.0,63,29.60,10.0,ESE,9.2,-,N/A,,Scattered Clouds,110,2013-03-17 16:53:00
11:53 AM,45.0,30.0,56,29.56,10.0,SE,10.4,-,N/A,,Clear,130,2013-03-17 17:53:00
12:53 PM,54.0,32.0,43,29.49,10.0,SE,3.5,-,N/A,,Scattered Clouds,140,2013-03-17 18:53:00
1:42 PM,55.4,23.0,29,29.49,1.8,West,33.4,47.2,N/A,,Haze,280,2013-03-17 19:42:00
1:50 PM,55.4,23.0,29,29.49,1.8,West,29.9,47.2,N/A,,Haze,280,2013-03-17 19:50:00
1:53 PM,57.0,23.0,27,29.47,2.0,WNW,32.2,47.2,N/A,,Haze,290,2013-03-17 19:53:00
2:12 PM,57.2,17.6,21,29.48,4.0,West,29.9,35.7,N/A,,Haze,280,2013-03-17 20:12:00
2:35 PM,57.2,19.4,23,29.47,3.0,West,33.4,46.0,N/A,,Haze,270,2013-03-17 20:35:00
2:41 PM,59.0,15.8,19,29.47,2.5,West,35.7,52.9,N/A,,Haze,280,2013-03-17 20:41:00
2:53 PM,57.9,15.1,19,29.43,1.2,West,29.9,57.5,N/A,,Haze,280,2013-03-17 20:53:00
3:19 PM,55.4,15.8,21,29.46,2.0,West,42.6,55.2,N/A,,Haze,270,2013-03-17 21:19:00
3:35 PM,55.4,15.8,21,29.48,4.0,West,35.7,49.5,N/A,,Haze,280,2013-03-17 21:35:00
3:53 PM,54.0,15.1,22,29.48,5.0,WNW,39.1,54.1,N/A,,Haze,290,2013-03-17 21:53:00
4:53 PM,54.0,10.0,17,29.49,5.0,West,36.8,54.1,N/A,,Haze,280,2013-03-17 22:53:00
5:53 PM,51.1,6.1,16,29.52,4.0,West,41.4,52.9,N/A,,Haze,270,2013-03-17 23:53:00
6:24 PM,48.2,5.0,17,29.55,9.0,West,33.4,47.2,N/A,,Mostly Cloudy,280,2013-03-18 00:24:00
6:53 PM,42.1,26.1,53,29.63,10.0,NNW,28.8,36.8,N/A,,Mostly Cloudy,340,2013-03-18 00:53:00
7:53 PM,36.0,25.0,64,29.75,10.0,NNW,19.6,32.2,N/A,,Overcast,330,2013-03-18 01:53:00
8:53 PM,33.1,23.0,66,29.82,10.0,NW,16.1,25.3,N/A,,Mostly Cloudy,320,2013-03-18 02:53:00
9:53 PM,30.9,23.0,72,29.86,10.0,NW,10.4,-,N/A,,Mostly Cloudy,310,2013-03-18 03:53:00
10:53 PM,30.9,21.0,67,29.85,10.0,WNW,10.4,-,N/A,,Overcast,290,2013-03-18 04:53:00
11:53 PM,28.9,19.9,69,29.87,10.0,WNW,10.4,-,N/A,,Clear,290,2013-03-18 05:53:00